CPA157 VHHH-YBBN

Flight info

Callsign CPA157
Flight time N/A
Altitude 35000
Route DALOL V642 NOMAN A461 AVMUP W16 MIA W11 MCT W8 DAO B473 ELNIT/N0496F370 B473 MEMOS/N0484F390 B473 CS Y177 SMOKA
Aircraft A35K/H-SDE2E3GHIJ1J3J4J5LM1ORWXY/LB1D1

Departure

Time N/A
Airport Hong Kong International Airport (VHHH)

Arrival

Time 2026-05-05 12:45
Airport Brisbane International Airport (YBBN)
Time Latitude Longitude Altitude Speed Heading
2026-05-05 11:59 -23.33553 149.82721 37079 ft 564 kts 155°
2026-05-05 11:59 -23.36939 149.84869 37078 ft 564 kts 155°
2026-05-05 12:00 -23.43728 149.89181 37087 ft 565 kts 155°
2026-05-05 12:00 -23.50533 149.93506 37086 ft 566 kts 155°
2026-05-05 12:01 -23.57339 149.97839 37083 ft 567 kts 155°
2026-05-05 12:01 -23.64149 150.02179 37083 ft 567 kts 155°
2026-05-05 12:02 -23.70921 150.06501 37123 ft 567 kts 155°
2026-05-05 12:02 -23.77725 150.10847 37085 ft 568 kts 155°
2026-05-05 12:03 -23.84571 150.15226 37086 ft 568 kts 155°
2026-05-05 12:03 -23.91399 150.19599 37093 ft 569 kts 155°
2026-05-05 12:04 -23.98181 150.23949 37081 ft 569 kts 155°
2026-05-05 12:04 -24.05008 150.28332 37090 ft 569 kts 155°
2026-05-05 12:05 -24.11838 150.32722 37089 ft 569 kts 155°
2026-05-05 12:05 -24.18676 150.37124 37089 ft 570 kts 155°
2026-05-05 12:06 -24.25513 150.41530 37094 ft 570 kts 155°
2026-05-05 12:06 -24.32345 150.45938 37094 ft 570 kts 155°
2026-05-05 12:07 -24.39173 150.50349 37102 ft 571 kts 155°
2026-05-05 12:07 -24.44871 150.54034 37103 ft 572 kts 155°
2026-05-05 12:08 -24.51718 150.58497 37107 ft 573 kts 153°
2026-05-05 12:08 -24.58398 150.63319 37102 ft 575 kts 150°
2026-05-05 12:09 -24.65013 150.68281 37108 ft 575 kts 151°
2026-05-05 12:09 -24.71644 150.73196 37110 ft 575 kts 151°
2026-05-05 12:10 -24.78308 150.78083 37110 ft 575 kts 152°
2026-05-05 12:10 -24.84960 150.82949 37113 ft 574 kts 151°
2026-05-05 12:11 -24.91616 150.87827 37110 ft 574 kts 151°
2026-05-05 12:11 -24.98257 150.92704 37116 ft 574 kts 151°
2026-05-05 12:12 -25.04870 150.97568 37110 ft 575 kts 151°
2026-05-05 12:12 -25.11543 151.02483 37110 ft 576 kts 151°
2026-05-05 12:13 -25.18216 151.07405 37108 ft 577 kts 151°
2026-05-05 12:13 -25.24872 151.12322 36830 ft 575 kts 151°
2026-05-05 12:14 -25.28194 151.14777 36351 ft 576 kts 151°
2026-05-05 12:14 -25.31533 151.17245 35872 ft 577 kts 150°
2026-05-05 12:14 -25.34874 151.19717 35417 ft 576 kts 150°
2026-05-05 12:14 -25.38194 151.22177 34954 ft 573 kts 150°
2026-05-05 12:15 -25.41459 151.24599 34520 ft 569 kts 150°
2026-05-05 12:15 -25.44736 151.27032 34087 ft 563 kts 150°
2026-05-05 12:15 -25.47976 151.29440 33626 ft 558 kts 150°
2026-05-05 12:15 -25.51193 151.31830 33197 ft 554 kts 149°
2026-05-05 12:16 -25.54381 151.34200 32740 ft 550 kts 149°
2026-05-05 12:16 -25.57543 151.36551 32315 ft 545 kts 149°
2026-05-05 12:16 -25.60670 151.38878 31895 ft 540 kts 149°
2026-05-05 12:16 -25.63775 151.41190 31482 ft 535 kts 149°
2026-05-05 12:17 -25.66850 151.43480 31100 ft 531 kts 149°
2026-05-05 12:17 -25.69917 151.45766 30699 ft 530 kts 149°
2026-05-05 12:17 -25.72923 151.48012 30307 ft 527 kts 148°
2026-05-05 12:17 -25.75805 151.50543 29868 ft 525 kts 141°
2026-05-05 12:18 -25.78556 151.53168 29416 ft 521 kts 140°
2026-05-05 12:18 -25.81267 151.55830 28963 ft 517 kts 140°
2026-05-05 12:18 -25.83933 151.58487 28514 ft 513 kts 140°
2026-05-05 12:18 -25.86569 151.61129 28069 ft 508 kts 140°
2026-05-05 12:19 -25.89184 151.63749 27639 ft 503 kts 140°
2026-05-05 12:19 -25.91773 151.66339 27222 ft 498 kts 140°
2026-05-05 12:19 -25.94340 151.68902 26809 ft 493 kts 140°
2026-05-05 12:19 -25.96880 151.71435 26398 ft 489 kts 140°
2026-05-05 12:20 -25.99400 151.73947 26005 ft 485 kts 141°
2026-05-05 12:20 -26.01901 151.76440 25740 ft 482 kts 141°
2026-05-05 12:20 -26.04395 151.78926 25726 ft 481 kts 141°
2026-05-05 12:20 -26.06881 151.81406 25723 ft 479 kts 141°
2026-05-05 12:21 -26.09363 151.83883 25715 ft 479 kts 141°
2026-05-05 12:21 -26.11808 151.86326 25558 ft 478 kts 141°
2026-05-05 12:21 -26.14278 151.88796 25328 ft 477 kts 141°
2026-05-05 12:21 -26.16739 151.91258 25099 ft 475 kts 141°
2026-05-05 12:22 -26.19187 151.93710 24755 ft 473 kts 141°
2026-05-05 12:22 -26.21620 151.96149 24382 ft 469 kts 141°
2026-05-05 12:22 -26.24035 151.98571 24003 ft 464 kts 141°
2026-05-05 12:22 -26.26426 152.00971 23618 ft 460 kts 141°
2026-05-05 12:23 -26.28796 152.03350 23168 ft 456 kts 141°
2026-05-05 12:23 -26.31153 152.05715 22715 ft 453 kts 141°
2026-05-05 12:23 -26.33493 152.08064 22335 ft 450 kts 141°
2026-05-05 12:23 -26.35821 152.10401 21947 ft 448 kts 141°
2026-05-05 12:24 -26.38099 152.12690 21579 ft 446 kts 141°
2026-05-05 12:24 -26.40424 152.15030 21210 ft 444 kts 141°
2026-05-05 12:24 -26.42683 152.17303 20853 ft 442 kts 140°
2026-05-05 12:24 -26.44959 152.19597 20482 ft 440 kts 140°
2026-05-05 12:25 -26.47223 152.21879 20133 ft 438 kts 140°
2026-05-05 12:25 -26.49477 152.24152 19775 ft 436 kts 140°
2026-05-05 12:25 -26.51719 152.26413 19422 ft 434 kts 140°
2026-05-05 12:25 -26.53957 152.28673 19079 ft 432 kts 140°
2026-05-05 12:26 -26.56178 152.30916 18739 ft 430 kts 139°
2026-05-05 12:26 -26.58388 152.33151 18398 ft 428 kts 139°
2026-05-05 12:26 -26.60589 152.35378 18011 ft 426 kts 139°
2026-05-05 12:26 -26.62780 152.37595 17623 ft 422 kts 139°
2026-05-05 12:27 -26.64938 152.39792 17238 ft 417 kts 139°
2026-05-05 12:27 -26.67058 152.41981 16870 ft 413 kts 138°
2026-05-05 12:27 -26.69153 152.44146 16461 ft 407 kts 138°
2026-05-05 12:27 -26.71219 152.46283 16053 ft 401 kts 138°
2026-05-05 12:28 -26.73253 152.48386 15644 ft 395 kts 138°
2026-05-05 12:28 -26.75231 152.50431 15246 ft 389 kts 138°
2026-05-05 12:28 -26.77201 152.52467 14844 ft 383 kts 138°
2026-05-05 12:28 -26.79144 152.54477 14470 ft 377 kts 138°
2026-05-05 12:29 -26.81057 152.56455 14079 ft 371 kts 138°
2026-05-05 12:29 -26.82940 152.58404 13660 ft 366 kts 138°
2026-05-05 12:29 -26.84798 152.60329 13243 ft 361 kts 138°
2026-05-05 12:29 -26.86628 152.62226 12848 ft 356 kts 138°
2026-05-05 12:30 -26.88430 152.64099 12466 ft 351 kts 137°
2026-05-05 12:30 -26.90210 152.65945 12051 ft 347 kts 138°
2026-05-05 12:30 -26.91977 152.67764 11652 ft 342 kts 138°
2026-05-05 12:30 -26.93715 152.69556 11245 ft 337 kts 138°
2026-05-05 12:31 -26.95430 152.71326 10829 ft 333 kts 138°
2026-05-05 12:31 -26.97120 152.73074 10446 ft 327 kts 138°
2026-05-05 12:31 -26.98782 152.74728 10307 ft 311 kts 142°
2026-05-05 12:31 -27.00630 152.75839 10164 ft 295 kts 164°
2026-05-05 12:32 -27.02591 152.76251 10020 ft 282 kts 173°
2026-05-05 12:32 -27.04530 152.76507 9631 ft 280 kts 174°
2026-05-05 12:32 -27.06472 152.76756 9283 ft 280 kts 173°
2026-05-05 12:32 -27.08404 152.77010 8942 ft 279 kts 173°
2026-05-05 12:33 -27.10333 152.77268 8629 ft 278 kts 173°
2026-05-05 12:33 -27.12252 152.77528 8299 ft 277 kts 173°
2026-05-05 12:33 -27.14145 152.77877 7979 ft 274 kts 166°
2026-05-05 12:33 -27.15970 152.78406 7833 ft 275 kts 165°
2026-05-05 12:34 -27.17811 152.78973 7647 ft 273 kts 164°
2026-05-05 12:34 -27.19642 152.79537 7485 ft 273 kts 164°
2026-05-05 12:34 -27.21469 152.80100 7314 ft 272 kts 164°
2026-05-05 12:34 -27.23290 152.80662 7135 ft 271 kts 164°
2026-05-05 12:35 -27.25109 152.81216 6962 ft 271 kts 165°
2026-05-05 12:35 -27.26925 152.81757 6782 ft 270 kts 165°
2026-05-05 12:35 -27.28738 152.82298 6609 ft 269 kts 165°
2026-05-05 12:35 -27.30546 152.82839 6428 ft 270 kts 165°
2026-05-05 12:36 -27.32344 152.83468 6239 ft 270 kts 160°
2026-05-05 12:36 -27.34099 152.84205 6069 ft 269 kts 159°
2026-05-05 12:36 -27.35847 152.84957 5898 ft 268 kts 159°
2026-05-05 12:36 -27.37586 152.85706 5729 ft 267 kts 159°
2026-05-05 12:37 -27.39321 152.86451 5554 ft 267 kts 159°
2026-05-05 12:37 -27.41052 152.87194 5380 ft 266 kts 159°
2026-05-05 12:37 -27.42784 152.87936 5216 ft 265 kts 159°
2026-05-05 12:37 -27.44485 152.88666 5048 ft 264 kts 159°
2026-05-05 12:38 -27.46200 152.89402 4876 ft 264 kts 158°
2026-05-05 12:38 -27.47909 152.90136 4720 ft 261 kts 158°
2026-05-05 12:38 -27.49563 152.90846 4559 ft 248 kts 158°
2026-05-05 12:38 -27.51146 152.91525 4407 ft 241 kts 158°
2026-05-05 12:39 -27.52707 152.92200 4245 ft 240 kts 158°
2026-05-05 12:39 -27.54264 152.92881 4080 ft 239 kts 158°
2026-05-05 12:39 -27.55775 152.93568 3921 ft 228 kts 154°
2026-05-05 12:39 -27.57003 152.94599 3779 ft 215 kts 128°
2026-05-05 12:40 -27.57601 152.96075 3637 ft 205 kts 99°
2026-05-05 12:40 -27.57660 152.97679 3555 ft 206 kts 89°
2026-05-05 12:40 -27.57606 152.99292 3535 ft 206 kts 89°
2026-05-05 12:40 -27.57504 153.00872 3437 ft 197 kts 82°
2026-05-05 12:41 -27.56860 153.02197 3240 ft 203 kts 42°
2026-05-05 12:41 -27.55615 153.03035 3178 ft 212 kts 27°
2026-05-05 12:41 -27.54307 153.03712 3062 ft 202 kts 28°
2026-05-05 12:41 -27.53079 153.04424 2807 ft 195 kts 30°
2026-05-05 12:42 -27.51894 153.05121 2539 ft 189 kts 30°
2026-05-05 12:42 -27.50753 153.05776 2298 ft 179 kts 30°
2026-05-05 12:42 -27.49673 153.06397 2057 ft 168 kts 30°
2026-05-05 12:42 -27.48666 153.06978 1838 ft 157 kts 30°
2026-05-05 12:43 -27.47731 153.07517 1645 ft 146 kts 30°
2026-05-05 12:43 -27.46861 153.08020 1450 ft 141 kts 30°
2026-05-05 12:43 -27.45977 153.08530 1271 ft 141 kts 30°
2026-05-05 12:43 -27.45114 153.09027 1089 ft 141 kts 29°
2026-05-05 12:44 -27.44235 153.09536 904 ft 142 kts 29°
2026-05-05 12:44 -27.43356 153.10045 725 ft 142 kts 28°
2026-05-05 12:44 -27.42472 153.10554 566 ft 143 kts 28°
2026-05-05 12:44 -27.41584 153.11067 353 ft 144 kts 27°
2026-05-05 12:45 -27.40693 153.11584 154 ft 145 kts 28°
2026-05-05 12:45 -27.39793 153.12103 29 ft 143 kts 29°
2026-05-05 12:45 -27.39059 153.12519 29 ft 93 kts 27°
2026-05-05 12:45 -27.38647 153.12756 28 ft 40 kts 27°
2026-05-05 12:46 -27.38518 153.12817 29 ft 15 kts 358°
2026-05-05 12:46 -27.38438 153.12748 28 ft 15 kts 297°
2026-05-05 12:46 -27.38395 153.12653 28 ft 13 kts 297°
2026-05-05 12:46 -27.38375 153.12561 27 ft 13 kts 250°
2026-05-05 12:47 -27.38447 153.12503 27 ft 14 kts 206°
2026-05-05 12:47 -27.38541 153.12450 27 ft 16 kts 207°
2026-05-05 12:47 -27.38650 153.12388 27 ft 19 kts 207°
2026-05-05 12:47 -27.38775 153.12316 27 ft 21 kts 207°
2026-05-05 12:48 -27.38913 153.12238 27 ft 24 kts 207°
2026-05-05 12:48 -27.39066 153.12151 27 ft 26 kts 207°
2026-05-05 12:48 -27.39214 153.12067 27 ft 24 kts 207°
2026-05-05 12:48 -27.39366 153.11980 27 ft 26 kts 207°
2026-05-05 12:49 -27.39533 153.11885 27 ft 28 kts 207°
2026-05-05 12:49 -27.39681 153.11799 27 ft 23 kts 207°
2026-05-05 12:49 -27.39808 153.11727 27 ft 12 kts 206°
2026-05-05 12:49 -27.39867 153.11680 27 ft 10 kts 243°
2026-05-05 12:50 -27.39861 153.11601 27 ft 11 kts 259°
2026-05-05 12:50 -27.39922 153.11550 27 ft 12 kts 206°
2026-05-05 12:50 -27.40009 153.11501 27 ft 15 kts 207°
2026-05-05 12:50 -27.40112 153.11442 27 ft 17 kts 207°
2026-05-05 12:51 -27.40196 153.11340 27 ft 17 kts 233°
2026-05-05 12:51 -27.40285 153.11270 27 ft 17 kts 211°
2026-05-05 12:51 -27.40365 153.11215 27 ft 10 kts 230°
2026-05-05 12:51 -27.40358 153.11153 27 ft 7 kts 295°
2026-05-05 12:52 -27.40348 153.11130 27 ft 0 kts 296°